VOI1191 KLAX-MMHO

Flight info

Callsign VOI1191
Flight time 1h 11m
Altitude 37000
Route PNDAH2 OTAYY TIJ UT18 AVTEN AVTE1A
Aircraft A320/M-SDE3FGHIRWY/LB1

Departure

Time 2026-04-25 05:51
Airport Los Angeles International Airport (KLAX)

Arrival

Time 2026-04-25 07:02
Airport General Ignacio L. Pesqueira International Airport (MMHO)
Time Latitude Longitude Altitude Speed Heading
2026-04-25 05:27 33.93944 -118.41054 121 ft 0 kts 83°
2026-04-25 05:39 33.93942 -118.41066 126 ft 2 kts 83°
2026-04-25 05:40 33.93940 -118.41086 124 ft 2 kts 83°
2026-04-25 05:40 33.93938 -118.41107 121 ft 2 kts 83°
2026-04-25 05:40 33.93936 -118.41127 122 ft 2 kts 83°
2026-04-25 05:40 33.93934 -118.41147 123 ft 2 kts 109°
2026-04-25 05:41 33.93942 -118.41161 120 ft 0 kts 169°
2026-04-25 05:43 33.93931 -118.41161 123 ft 7 kts 180°
2026-04-25 05:43 33.93865 -118.41163 124 ft 11 kts 175°
2026-04-25 05:43 33.93778 -118.41151 123 ft 14 kts 173°
2026-04-25 05:44 33.93769 -118.41147 125 ft 1 kts 144°
2026-04-25 05:44 33.93767 -118.41113 124 ft 8 kts 89°
2026-04-25 05:44 33.93769 -118.41038 126 ft 10 kts 85°
2026-04-25 05:44 33.93782 -118.40940 123 ft 15 kts 81°
2026-04-25 05:45 33.93797 -118.40790 123 ft 20 kts 83°
2026-04-25 05:45 33.93816 -118.40612 126 ft 24 kts 83°
2026-04-25 05:45 33.93837 -118.40405 126 ft 26 kts 82°
2026-04-25 05:45 33.93860 -118.40177 126 ft 29 kts 83°
2026-04-25 05:46 33.93876 -118.40017 126 ft 30 kts 82°
2026-04-25 05:46 33.93908 -118.39706 126 ft 27 kts 83°
2026-04-25 05:46 33.93924 -118.39554 126 ft 28 kts 83°
2026-04-25 05:46 33.93949 -118.39311 126 ft 30 kts 83°
2026-04-25 05:47 33.93969 -118.39104 124 ft 24 kts 80°
2026-04-25 05:47 33.93991 -118.38895 126 ft 26 kts 83°
2026-04-25 05:47 33.94015 -118.38667 123 ft 29 kts 83°
2026-04-25 05:47 33.94040 -118.38420 122 ft 31 kts 83°
2026-04-25 05:48 33.94066 -118.38154 125 ft 31 kts 83°
2026-04-25 05:48 33.94077 -118.38032 126 ft 7 kts 90°
2026-04-25 05:48 33.94041 -118.38001 122 ft 8 kts 168°
2026-04-25 05:48 33.93988 -118.38009 124 ft 8 kts 236°
2026-04-25 05:49 33.93980 -118.38050 124 ft 0 kts 263°
2026-04-25 05:50 33.93955 -118.38317 126 ft 70 kts 263°
2026-04-25 05:51 33.93869 -118.39152 126 ft 128 kts 262°
2026-04-25 05:51 33.93737 -118.40403 146 ft 170 kts 263°
2026-04-25 05:51 33.93584 -118.41868 574 ft 185 kts 262°
2026-04-25 05:51 33.93412 -118.43486 1155 ft 199 kts 262°
2026-04-25 05:52 33.93210 -118.45181 1770 ft 211 kts 257°
2026-04-25 05:52 33.92531 -118.46854 2180 ft 237 kts 232°
2026-04-25 05:52 33.91479 -118.48462 2808 ft 255 kts 232°
2026-04-25 05:52 33.90341 -118.50168 3746 ft 261 kts 231°
2026-04-25 05:53 33.89167 -118.51853 4594 ft 266 kts 231°
2026-04-25 05:53 33.87977 -118.53525 4889 ft 266 kts 228°
2026-04-25 05:53 33.86500 -118.54881 5189 ft 274 kts 206°
2026-04-25 05:53 33.84650 -118.55416 6179 ft 277 kts 182°
2026-04-25 05:54 33.82695 -118.55144 7115 ft 281 kts 172°
2026-04-25 05:54 33.80786 -118.54723 8025 ft 284 kts 171°
2026-04-25 05:54 33.76864 -118.53783 9826 ft 291 kts 172°
2026-04-25 05:55 33.74847 -118.53299 10382 ft 305 kts 172°
2026-04-25 05:55 33.72699 -118.52662 10653 ft 330 kts 163°
2026-04-25 05:55 33.70615 -118.51358 11225 ft 346 kts 148°
2026-04-25 05:55 33.68813 -118.49393 11917 ft 357 kts 133°
2026-04-25 05:56 33.67447 -118.46849 12606 ft 367 kts 120°
2026-04-25 05:56 33.66272 -118.44095 13291 ft 373 kts 120°
2026-04-25 05:56 33.65078 -118.41299 13943 ft 379 kts 121°
2026-04-25 05:56 33.63870 -118.38476 14543 ft 383 kts 121°
2026-04-25 05:57 33.62643 -118.35616 15143 ft 388 kts 121°
2026-04-25 05:57 33.61399 -118.32725 15744 ft 392 kts 121°
2026-04-25 05:57 33.60136 -118.29802 16351 ft 396 kts 121°
2026-04-25 05:57 33.58861 -118.26860 16838 ft 400 kts 121°
2026-04-25 05:58 33.57581 -118.23905 17056 ft 402 kts 121°
2026-04-25 05:58 33.56287 -118.20917 17662 ft 404 kts 121°
2026-04-25 05:58 33.55003 -118.17953 18296 ft 407 kts 121°
2026-04-25 05:58 33.53696 -118.14933 18850 ft 410 kts 121°
2026-04-25 05:59 33.52378 -118.11884 19399 ft 413 kts 121°
2026-04-25 05:59 33.51056 -118.08811 19974 ft 416 kts 121°
2026-04-25 05:59 33.49727 -118.05719 20538 ft 420 kts 121°
2026-04-25 05:59 33.48381 -118.02593 21038 ft 424 kts 121°
2026-04-25 06:00 33.46838 -117.99604 21533 ft 423 kts 131°
2026-04-25 06:00 33.44893 -117.96972 22038 ft 420 kts 141°
2026-04-25 06:00 33.42710 -117.94651 22546 ft 422 kts 143°
2026-04-25 06:00 33.40500 -117.92322 23037 ft 424 kts 143°
2026-04-25 06:01 33.38291 -117.89982 23605 ft 425 kts 143°
2026-04-25 06:01 33.36068 -117.87622 24031 ft 428 kts 143°
2026-04-25 06:01 33.33831 -117.85244 24444 ft 431 kts 143°
2026-04-25 06:01 33.31587 -117.82860 24844 ft 434 kts 143°
2026-04-25 06:02 33.29317 -117.80452 25241 ft 437 kts 143°
2026-04-25 06:02 33.27033 -117.78036 25631 ft 440 kts 144°
2026-04-25 06:02 33.24731 -117.75604 26018 ft 444 kts 144°
2026-04-25 06:02 33.22406 -117.73151 26396 ft 447 kts 144°
2026-04-25 06:03 33.20065 -117.70681 26787 ft 450 kts 144°
2026-04-25 06:03 33.17743 -117.68230 27158 ft 453 kts 144°
2026-04-25 06:03 33.15380 -117.65729 27539 ft 457 kts 144°
2026-04-25 06:03 33.13017 -117.63166 27901 ft 460 kts 143°
2026-04-25 06:04 33.10665 -117.60546 28269 ft 464 kts 143°
2026-04-25 06:04 33.08319 -117.57898 28645 ft 467 kts 143°
2026-04-25 06:04 33.05946 -117.55214 29009 ft 471 kts 143°
2026-04-25 06:04 33.03560 -117.52525 29389 ft 474 kts 143°
2026-04-25 06:05 33.01146 -117.49825 29756 ft 477 kts 144°
2026-04-25 06:05 32.98716 -117.47128 30108 ft 480 kts 144°
2026-04-25 06:05 32.96261 -117.44415 30416 ft 483 kts 144°
2026-04-25 06:05 32.93790 -117.41691 30730 ft 485 kts 144°
2026-04-25 06:06 32.91315 -117.38961 31080 ft 486 kts 144°
2026-04-25 06:06 32.88831 -117.36218 31540 ft 485 kts 145°
2026-04-25 06:06 32.86356 -117.33485 32000 ft 484 kts 145°
2026-04-25 06:06 32.83888 -117.30759 32455 ft 484 kts 146°
2026-04-25 06:07 32.81430 -117.28044 32927 ft 483 kts 146°
2026-04-25 06:07 32.78964 -117.25322 33388 ft 482 kts 146°
2026-04-25 06:07 32.76511 -117.22616 33859 ft 481 kts 146°
2026-04-25 06:07 32.74055 -117.19907 34284 ft 481 kts 147°
2026-04-25 06:08 32.71607 -117.17210 34646 ft 480 kts 147°
2026-04-25 06:08 32.69156 -117.14518 34999 ft 480 kts 147°
2026-04-25 06:08 32.66740 -117.11851 35350 ft 482 kts 145°
2026-04-25 06:08 32.64433 -117.08909 35648 ft 487 kts 142°
2026-04-25 06:09 32.62159 -117.05929 36001 ft 487 kts 142°
2026-04-25 06:09 32.59887 -117.02945 36345 ft 487 kts 142°
2026-04-25 06:09 32.57623 -116.99969 36655 ft 487 kts 142°
2026-04-25 06:09 32.55352 -116.96983 36964 ft 487 kts 142°
2026-04-25 06:10 32.53236 -116.93794 37037 ft 500 kts 132°
2026-04-25 06:10 32.51345 -116.90317 37035 ft 502 kts 131°
2026-04-25 06:10 32.47572 -116.83344 36993 ft 503 kts 131°
2026-04-25 06:11 32.43788 -116.76365 37022 ft 503 kts 131°
2026-04-25 06:11 32.40004 -116.69402 37024 ft 503 kts 131°
2026-04-25 06:12 32.36213 -116.62439 37045 ft 503 kts 131°
2026-04-25 06:12 32.32412 -116.55479 37055 ft 504 kts 131°
2026-04-25 06:13 32.28604 -116.48528 37003 ft 504 kts 131°
2026-04-25 06:14 32.22907 -116.38149 37028 ft 504 kts 131°
2026-04-25 06:14 32.19095 -116.31197 37036 ft 504 kts 131°
2026-04-25 06:15 32.15284 -116.24251 37047 ft 504 kts 132°
2026-04-25 06:15 32.11462 -116.17321 36997 ft 504 kts 131°
2026-04-25 06:16 32.07633 -116.10393 36990 ft 504 kts 131°
2026-04-25 06:16 32.03810 -116.03470 37001 ft 504 kts 131°
2026-04-25 06:17 31.99983 -115.96546 36971 ft 504 kts 131°
2026-04-25 06:17 31.96141 -115.89625 36991 ft 505 kts 132°
2026-04-25 06:18 31.92314 -115.82749 36936 ft 505 kts 131°
2026-04-25 06:18 31.88456 -115.75820 36899 ft 506 kts 131°
2026-04-25 06:19 31.84591 -115.68904 36929 ft 506 kts 133°
2026-04-25 06:19 31.80717 -115.61974 36902 ft 507 kts 132°
2026-04-25 06:20 31.76836 -115.55048 36887 ft 507 kts 132°
2026-04-25 06:20 31.72945 -115.48129 36889 ft 508 kts 132°
2026-04-25 06:21 31.69055 -115.41209 36912 ft 508 kts 132°
2026-04-25 06:21 31.65165 -115.34297 36867 ft 507 kts 132°
2026-04-25 06:22 31.61269 -115.27390 36879 ft 507 kts 132°
2026-04-25 06:22 31.57379 -115.20503 36832 ft 506 kts 132°
2026-04-25 06:23 31.53487 -115.13623 36831 ft 506 kts 132°
2026-04-25 06:23 31.49579 -115.06760 36842 ft 506 kts 132°
2026-04-25 06:24 31.45673 -114.99901 36855 ft 506 kts 132°
2026-04-25 06:24 31.41771 -114.93036 36848 ft 507 kts 132°
2026-04-25 06:25 31.37887 -114.86217 36824 ft 507 kts 132°
2026-04-25 06:25 31.33955 -114.79348 36840 ft 507 kts 132°
2026-04-25 06:26 31.30019 -114.72488 36844 ft 508 kts 132°
2026-04-25 06:26 31.26090 -114.65627 36850 ft 508 kts 132°
2026-04-25 06:27 31.22155 -114.58770 36842 ft 508 kts 132°
2026-04-25 06:27 31.18237 -114.51971 36836 ft 507 kts 132°
2026-04-25 06:28 31.14300 -114.45134 36844 ft 507 kts 132°
2026-04-25 06:28 31.10364 -114.38325 36842 ft 506 kts 132°
2026-04-25 06:29 31.06420 -114.31521 36837 ft 506 kts 132°
2026-04-25 06:29 31.02474 -114.24715 36837 ft 507 kts 132°
2026-04-25 06:30 30.98522 -114.17901 36836 ft 507 kts 132°
2026-04-25 06:30 30.94573 -114.11103 36842 ft 507 kts 132°
2026-04-25 06:31 30.90610 -114.04301 36853 ft 507 kts 133°
2026-04-25 06:31 30.86644 -113.97513 36847 ft 507 kts 133°
2026-04-25 06:32 30.82685 -113.90737 36805 ft 507 kts 132°
2026-04-25 06:32 30.78742 -113.84007 36818 ft 507 kts 132°
2026-04-25 06:33 30.74774 -113.77232 36832 ft 507 kts 132°
2026-04-25 06:33 30.70798 -113.70468 36851 ft 507 kts 132°
2026-04-25 06:34 30.66816 -113.63707 36850 ft 507 kts 132°
2026-04-25 06:34 30.62826 -113.56942 36816 ft 507 kts 132°
2026-04-25 06:35 30.58844 -113.50203 36858 ft 506 kts 132°
2026-04-25 06:35 30.54848 -113.43459 36863 ft 507 kts 132°
2026-04-25 06:36 30.51537 -113.37856 36876 ft 507 kts 132°
2026-04-25 06:36 30.47551 -113.31127 36856 ft 507 kts 133°
2026-04-25 06:37 30.43548 -113.24399 36836 ft 507 kts 132°
2026-04-25 06:37 30.39549 -113.17683 36861 ft 506 kts 132°
2026-04-25 06:38 30.35540 -113.10969 36869 ft 506 kts 132°
2026-04-25 06:38 30.31533 -113.04274 36649 ft 506 kts 132°
2026-04-25 06:38 30.29530 -113.00921 36387 ft 505 kts 132°
2026-04-25 06:39 30.27531 -112.97578 36138 ft 505 kts 132°
2026-04-25 06:39 30.25534 -112.94241 35909 ft 504 kts 132°
2026-04-25 06:39 30.23545 -112.90921 35612 ft 501 kts 132°
2026-04-25 06:39 30.21564 -112.87618 35098 ft 499 kts 132°
2026-04-25 06:40 30.19587 -112.84324 34565 ft 498 kts 132°
2026-04-25 06:40 30.17632 -112.81075 34028 ft 498 kts 131°
2026-04-25 06:40 30.15630 -112.77749 33431 ft 497 kts 131°
2026-04-25 06:40 30.13662 -112.74481 32869 ft 495 kts 131°
2026-04-25 06:41 30.11694 -112.71213 32320 ft 493 kts 131°
2026-04-25 06:41 30.09736 -112.67967 31768 ft 491 kts 131°
2026-04-25 06:41 30.07813 -112.64781 31239 ft 489 kts 131°
2026-04-25 06:41 30.05845 -112.61528 30698 ft 486 kts 131°
2026-04-25 06:42 30.03948 -112.58388 30318 ft 480 kts 131°
2026-04-25 06:42 30.02044 -112.55236 29746 ft 478 kts 131°
2026-04-25 06:42 30.00153 -112.52108 29248 ft 473 kts 131°
2026-04-25 06:42 29.98273 -112.49007 28756 ft 468 kts 131°
2026-04-25 06:43 29.96411 -112.45941 28192 ft 466 kts 131°
2026-04-25 06:43 29.94563 -112.42898 27743 ft 461 kts 131°
2026-04-25 06:43 29.92732 -112.39886 27258 ft 457 kts 131°
2026-04-25 06:43 29.90910 -112.36897 26793 ft 454 kts 131°
2026-04-25 06:44 29.89104 -112.33927 26312 ft 451 kts 131°
2026-04-25 06:44 29.87308 -112.30973 25848 ft 449 kts 131°
2026-04-25 06:44 29.85520 -112.28036 25378 ft 446 kts 130°
2026-04-25 06:44 29.83769 -112.25160 24852 ft 442 kts 130°
2026-04-25 06:45 29.81992 -112.22243 24342 ft 436 kts 130°
2026-04-25 06:45 29.80283 -112.19439 23845 ft 430 kts 130°
2026-04-25 06:45 29.78579 -112.16643 23320 ft 422 kts 130°
2026-04-25 06:45 29.76924 -112.13922 22800 ft 408 kts 130°
2026-04-25 06:46 29.75318 -112.11282 22333 ft 397 kts 130°
2026-04-25 06:46 29.73729 -112.08687 21844 ft 396 kts 130°
2026-04-25 06:46 29.72141 -112.06106 21383 ft 395 kts 130°
2026-04-25 06:46 29.70554 -112.03535 20916 ft 394 kts 130°
2026-04-25 06:47 29.68967 -112.00962 20434 ft 394 kts 130°
2026-04-25 06:47 29.67392 -111.98437 19978 ft 391 kts 133°
2026-04-25 06:47 29.65581 -111.96141 19502 ft 386 kts 139°
2026-04-25 06:47 29.63709 -111.93925 19041 ft 385 kts 139°
2026-04-25 06:48 29.61847 -111.91718 18578 ft 384 kts 139°
2026-04-25 06:48 29.59991 -111.89517 18127 ft 382 kts 139°
2026-04-25 06:48 29.58155 -111.87337 17694 ft 378 kts 138°
2026-04-25 06:48 29.56329 -111.85171 17247 ft 375 kts 138°
2026-04-25 06:49 29.54522 -111.83028 16787 ft 372 kts 138°
2026-04-25 06:49 29.52725 -111.80899 16354 ft 369 kts 138°
2026-04-25 06:49 29.50946 -111.78790 15921 ft 366 kts 138°
2026-04-25 06:49 29.49179 -111.76700 15471 ft 360 kts 138°
2026-04-25 06:50 29.47470 -111.74676 15052 ft 346 kts 138°
2026-04-25 06:50 29.45823 -111.72727 14653 ft 338 kts 138°
2026-04-25 06:50 29.44185 -111.70793 14251 ft 338 kts 138°
2026-04-25 06:50 29.42546 -111.68860 13846 ft 338 kts 138°
2026-04-25 06:51 29.40904 -111.66925 13397 ft 338 kts 137°
2026-04-25 06:51 29.39266 -111.64999 12994 ft 336 kts 137°
2026-04-25 06:51 29.37642 -111.63088 12598 ft 334 kts 137°
2026-04-25 06:51 29.36028 -111.61183 12200 ft 332 kts 137°
2026-04-25 06:52 29.34417 -111.59287 11806 ft 331 kts 137°
2026-04-25 06:52 29.32811 -111.57403 11405 ft 329 kts 137°
2026-04-25 06:52 29.31215 -111.55531 11009 ft 328 kts 137°
2026-04-25 06:52 29.29628 -111.53665 10615 ft 327 kts 137°
2026-04-25 06:53 29.28045 -111.51804 10233 ft 325 kts 137°
2026-04-25 06:53 29.26485 -111.49971 10065 ft 316 kts 137°
2026-04-25 06:53 29.25003 -111.48227 9690 ft 305 kts 137°
2026-04-25 06:53 29.23535 -111.46501 9113 ft 300 kts 137°
2026-04-25 06:54 29.22095 -111.44811 8723 ft 295 kts 137°
2026-04-25 06:54 29.20666 -111.43138 8384 ft 293 kts 137°
2026-04-25 06:54 29.19256 -111.41488 8041 ft 285 kts 137°
2026-04-25 06:54 29.17900 -111.39898 7710 ft 273 kts 137°
2026-04-25 06:55 29.16596 -111.38369 7391 ft 263 kts 137°
2026-04-25 06:55 29.15339 -111.36895 7088 ft 254 kts 137°
2026-04-25 06:55 29.14110 -111.35452 6783 ft 254 kts 137°
2026-04-25 06:55 29.12869 -111.34001 6478 ft 254 kts 137°
2026-04-25 06:56 29.11630 -111.32555 6174 ft 255 kts 137°
2026-04-25 06:56 29.10395 -111.31111 5862 ft 252 kts 136°
2026-04-25 06:56 29.09185 -111.29693 5561 ft 246 kts 136°
2026-04-25 06:56 29.08016 -111.28326 5272 ft 235 kts 137°
2026-04-25 06:57 29.06812 -111.27134 4996 ft 223 kts 150°
2026-04-25 06:57 29.05518 -111.26221 4708 ft 216 kts 146°
2026-04-25 06:57 29.04302 -111.25273 4445 ft 209 kts 150°
2026-04-25 06:57 29.03058 -111.24418 4186 ft 207 kts 152°
2026-04-25 06:58 29.01846 -111.23594 3932 ft 200 kts 148°
2026-04-25 06:58 29.01003 -111.22387 3673 ft 194 kts 109°
2026-04-25 06:58 29.01023 -111.20928 3429 ft 180 kts 69°
2026-04-25 06:58 29.01601 -111.19765 3224 ft 165 kts 58°
2026-04-25 06:59 29.02185 -111.18671 3010 ft 159 kts 58°
2026-04-25 06:59 29.02757 -111.17597 2805 ft 157 kts 58°
2026-04-25 06:59 29.03332 -111.16518 2604 ft 156 kts 58°
2026-04-25 06:59 29.03888 -111.15474 2411 ft 156 kts 58°
2026-04-25 07:00 29.04454 -111.14417 2209 ft 156 kts 58°
2026-04-25 07:00 29.05019 -111.13359 2009 ft 156 kts 59°
2026-04-25 07:00 29.05588 -111.12287 1805 ft 156 kts 59°
2026-04-25 07:00 29.06144 -111.11245 1620 ft 155 kts 59°
2026-04-25 07:01 29.06704 -111.10208 1428 ft 152 kts 59°
2026-04-25 07:01 29.07232 -111.09180 1227 ft 148 kts 61°
2026-04-25 07:01 29.07755 -111.08185 1025 ft 145 kts 57°
2026-04-25 07:01 29.08286 -111.07211 825 ft 143 kts 59°
2026-04-25 07:02 29.08807 -111.06244 664 ft 142 kts 58°
2026-04-25 07:02 29.09274 -111.05356 627 ft 110 kts 58°
2026-04-25 07:02 29.09586 -111.04778 633 ft 61 kts 58°
2026-04-25 07:02 29.09721 -111.04529 631 ft 21 kts 58°
2026-04-25 07:03 29.09798 -111.04382 639 ft 22 kts 59°
2026-04-25 07:03 29.09849 -111.04278 636 ft 7 kts 68°
2026-04-25 07:03 29.09831 -111.04227 643 ft 8 kts 145°
2026-04-25 07:03 29.09776 -111.04191 637 ft 11 kts 150°
2026-04-25 07:04 29.09700 -111.04160 637 ft 13 kts 192°
2026-04-25 07:04 29.09632 -111.04246 641 ft 17 kts 235°
2026-04-25 07:04 29.09558 -111.04364 640 ft 20 kts 234°
2026-04-25 07:04 29.09472 -111.04501 639 ft 23 kts 234°
2026-04-25 07:05 29.09380 -111.04619 638 ft 9 kts 221°
2026-04-25 07:05 29.09367 -111.04700 634 ft 13 kts 272°
2026-04-25 07:05 29.09371 -111.04806 631 ft 10 kts 266°
2026-04-25 07:05 29.09330 -111.04893 633 ft 15 kts 241°
2026-04-25 07:06 29.09269 -111.05005 632 ft 19 kts 238°
2026-04-25 07:06 29.09213 -111.05110 636 ft 9 kts 238°
2026-04-25 07:06 29.09169 -111.05129 632 ft 7 kts 158°
2026-04-25 07:06 29.09143 -111.05116 637 ft 0 kts 154°